Location: Unspecified
(0.0000°N, 0.0000°E)
Time: 08:21:39
(UTC+00:00)

Vanguard 2 Rocket - All Passes

Search period start: 03 October 2023 00:00
Search period end: 13 October 2023 00:00
Orbit: 553 x 3313 km, 32.9° (Epoch: 02 October)

Date Brightness Start Highest point End Pass type
(mag) Time Alt. Az. Time Alt. Az. Time Alt. Az.
03 Oct - 04:13:25 10° SSW 04:18:11 28° SE 04:25:24 10° E visible
03 Oct - 06:24:21 10° WSW 06:31:39 64° NNW 06:44:55 10° NE daylight
03 Oct - 08:39:57 10° WNW 08:49:14 27° NNW 09:02:40 10° NNE daylight
03 Oct - 11:01:05 10° NW 11:11:32 18° N 11:23:23 10° NE daylight
03 Oct - 13:21:26 10° NNW 13:36:05 24° NNE 13:49:09 10° ENE daylight
03 Oct - 15:39:12 10° NW 15:57:20 47° NNE 16:09:21 10° E daylight
03 Oct - 17:58:12 10° WNW 18:14:17 72° SW 18:23:15 10° SE visible
03 Oct - 20:22:15 10° WSW 20:28:03 16° SW 20:32:28 10° S visible
04 Oct - 03:15:00 10° SSE 03:16:57 12° SE 03:19:10 10° ESE visible
04 Oct - 05:23:24 10° SW 05:29:33 86° SE 05:40:45 10° NE visible
04 Oct - 07:37:14 10° W 07:45:24 33° NNW 07:58:21 10° NE daylight
04 Oct - 09:56:30 10° NW 10:05:49 18° N 10:17:20 10° NNE daylight
04 Oct - 12:17:22 10° NNW 12:30:07 20° NNE 12:42:55 10° NE daylight
04 Oct - 14:35:05 10° NW 14:52:49 37° NNE 15:06:14 10° E daylight
04 Oct - 16:53:11 10° NW 17:11:27 82° NE 17:22:06 10° ESE daylight
04 Oct - 19:14:59 10° W 19:26:13 31° SW 19:33:19 10° SSE visible
05 Oct - 04:22:56 10° SW 04:28:03 48° SE 04:36:33 10° ENE visible
05 Oct - 06:35:15 10° W 06:42:18 42° NNW 06:54:19 10° NE daylight
05 Oct - 08:52:32 10° NW 09:00:50 20° NNW 09:11:58 10° NNE daylight
05 Oct - 11:13:22 10° NNW 11:23:58 18° N 11:35:42 10° NE daylight
05 Oct - 13:31:16 10° NNW 13:47:43 30° NNE 14:01:56 10° ENE daylight
05 Oct - 15:48:36 10° NW 16:07:53 63° NNE 16:20:19 10° ESE daylight
05 Oct - 18:08:45 10° WNW 18:24:06 51° SW 18:33:06 10° SE visible
06 Oct - 03:23:08 10° S 03:26:55 23° SE 03:32:06 10° E visible
06 Oct - 05:33:51 10° WSW 05:39:52 59° NNW 05:50:33 10° NE daylight
06 Oct - 07:49:17 10° WNW 07:56:41 23° NNW 08:07:22 10° NNE daylight
06 Oct - 10:09:27 10° NNW 10:18:05 16° N 10:28:18 10° NE daylight
06 Oct - 12:27:46 10° NNW 12:42:07 24° NNE 12:56:14 10° ENE daylight
06 Oct - 14:44:28 10° NW 15:03:39 49° NNE 15:17:43 10° E daylight
06 Oct - 17:03:10 10° WNW 17:21:27 74° SW 17:32:16 10° SE daylight
06 Oct - 19:27:21 10° W 19:36:10 21° SW 19:42:24 10° S visible
07 Oct - 04:32:57 10° SW 04:38:06 86° SE 04:46:56 10° NE visible
07 Oct - 06:46:45 10° WNW 06:53:17 27° NNW 07:03:24 10° NNE daylight
07 Oct - 09:05:39 10° NW 09:12:47 16° N 09:21:40 10° NNE daylight
07 Oct - 11:24:32 10° NNW 11:36:15 20° NNE 11:49:02 10° NE daylight
07 Oct - 13:40:47 10° NW 13:58:51 39° NNE 14:14:05 10° E daylight
07 Oct - 15:58:13 10° NW 16:18:06 83° NE 16:30:49 10° ESE daylight
07 Oct - 18:20:00 10° W 18:33:54 36° SW 18:42:40 10° SSE visible
08 Oct - 03:32:32 10° SSW 03:36:50 43° SE 03:43:22 10° ENE visible
08 Oct - 05:44:50 10° W 05:50:34 35° NNW 05:59:54 10° NE daylight
08 Oct - 08:02:08 10° NW 08:08:17 16° N 08:16:18 10° NNE daylight
08 Oct - 10:21:33 10° NNW 10:30:25 16° N 10:40:43 10° NE daylight
08 Oct - 12:37:33 10° NNW 12:53:37 30° NNE 13:09:06 10° E daylight
08 Oct - 14:53:54 10° NW 15:14:05 65° NNE 15:28:37 10° ESE daylight
08 Oct - 17:13:39 10° WNW 17:31:15 55° SW 17:42:06 10° SE daylight
08 Oct - 19:41:14 10° WSW 19:46:27 13° SW 19:50:42 10° S visible
09 Oct - 02:32:47 10° S 02:35:48 19° SE 02:39:28 10° E visible
09 Oct - 04:43:27 10° WSW 04:48:27 52° NNW 04:56:46 10° NE visible
09 Oct - 06:59:03 10° NW 07:04:34 18° NNW 07:12:07 10° NNE daylight
09 Oct - 09:18:44 10° NNW 09:24:59 14° N 09:32:23 10° NNE daylight
09 Oct - 11:34:46 10° NNW 11:48:07 24° NNE 12:02:32 10° ENE daylight
09 Oct - 13:50:12 10° NW 14:09:31 51° NNE 14:25:32 10° ESE daylight
09 Oct - 16:08:11 10° WNW 16:28:02 76° SW 16:40:55 10° SE daylight
09 Oct - 18:32:09 10° W 18:43:52 25° SW 18:51:55 10° SSE visible
10 Oct - 03:42:31 10° SW 03:46:56 88° SE 03:53:49 10° NE visible
10 Oct - 05:56:33 10° WNW 06:01:33 22° NNW 06:08:48 10° NNE daylight
10 Oct - 08:15:50 10° NNW 08:20:11 12° N 08:25:17 10° NNE daylight
10 Oct - 10:32:27 10° NNW 10:42:34 18° NNE 10:54:19 10° NE daylight
10 Oct - 12:47:04 10° NNW 13:04:34 39° NNE 13:21:17 10° E daylight
10 Oct - 15:03:33 10° NW 15:24:11 83° NE 15:39:04 10° ESE daylight
10 Oct - 17:24:48 10° WNW 17:41:03 40° SW 17:51:41 10° SSE daylight
11 Oct - 02:42:00 10° SSW 02:45:49 39° SE 02:50:52 10° ENE visible
11 Oct - 04:54:33 10° W 04:59:08 28° NNW 05:06:02 10° NNE visible
11 Oct - 07:12:41 10° NNW 07:16:08 12° N 07:20:12 10° NNE daylight
11 Oct - 09:30:38 10° NNW 09:37:12 14° NNE 09:44:53 10° NE daylight
11 Oct - 11:44:29 10° NNW 11:59:27 30° NNE 12:15:34 10° E daylight
11 Oct - 13:59:41 10° NW 14:19:47 66° NE 14:36:25 10° ESE daylight
11 Oct - 16:18:38 10° WNW 16:37:50 58° SW 16:50:43 10° SE daylight
11 Oct - 18:45:27 10° WSW 18:54:11 17° SW 19:00:48 10° S visible
12 Oct - 01:42:08 10° S 01:44:43 16° SE 01:47:30 10° ESE night (unlit)
12 Oct - 03:53:03 10° WSW 03:57:17 44° NNW 04:03:37 10° NE visible
12 Oct - 06:09:27 10° NW 06:12:48 13° NNW 06:16:54 10° NNE daylight
12 Oct - 08:29:53 10° N 08:32:16 11° N 08:34:51 10° NNE daylight
12 Oct - 10:42:28 10° NNW 10:54:15 22° NNE 11:08:05 10° ENE daylight
12 Oct - 12:56:30 10° NW 13:15:04 51° NNE 13:32:46 10° ESE daylight
12 Oct - 15:13:32 10° WNW 15:34:03 77° SW 15:49:08 10° SE daylight
12 Oct - 17:36:47 10° W 17:51:04 29° SW 18:01:02 10° SSE daylight
